SKYSAT C11

导读

SKYSAT C11是美国SkySat系列的一颗高分辨率商业遥感卫星,于2017年10月31日发射入轨。该卫星归属于行星实验室(Planet Labs),主要用于获取全球高分辨率对地观测影像,可服务于测绘、城市规划、环境监测、灾害评估等多个领域,推动了商业遥感数据应用发展。

基本信息
目录编号:
42987
目录名称:
SKYSAT C11
国际标识:
2017-068A
轨道中心:
EARTH
卫星名称:
SKYSAT C11
卫星全名:
--
卫星状态:
在轨 (已飞行3237 天)
发射日期:
2017-10-31 UTC
国别 :
美国 (US)
星等 :
--
轨道信息
数据来源 国际轨道数据
星历时间: 2026-09-11T00:27:48+0800
8小时前
查看轨道信息
半长轴: 6758.831km
偏心率: 0.0001095
轨道倾角: 97.445°
近地点辐角 68.527°
升交点赤经 46.583°
平近点角 291.610°
近地点: 379.953km
远地点: 381.435km
周期: 92.165分钟
每日圈数: 15.624114
详细信息
使用方式:
暂无
2D轨道图
3D轨道图
轨道高度分析图
轨道倾角分析图
轨道综合分析图
查看轨道综合分析图
与全量物体交会距离演化趋势
与全量物体交会风险概率演化趋势